FW6665 Weather Reports


time (UTC)temp
C
wind
direction
speed
KPH
gust
KPH
rain 1hr
cm
rain 24hr
cm
rain mn
cm
humidity
%
barometer
mb
20260904144204 20 265 8.0 24.1 0.00 0.05 0.05 56 1012.2
20260904143704 20 240 4.8 24.1 0.00 0.05 0.05 58 1012.1
20260904143204 20 241 8.0 20.9 0.00 0.05 0.05 58 1011.9
20260904142704 20 257 9.7 20.9 0.00 0.05 0.05 59 1012.1
20260904142209 20 231 6.4 22.5 0.00 0.05 0.05 59 1012.0
20260904141704 20 240 9.7 22.5 0.00 0.05 0.05 59 1012.1
20260904141204 20 241 8.0 22.5 0.00 0.05 0.05 58 1012.0
20260904140705 20 264 8.0 22.5 0.00 0.05 0.05 59 1012.2
20260904140205 20 238 11.3 22.5 0.00 0.05 0.05 59 1012.1
20260904135705 20 238 6.4 22.5 0.00 0.05 0.05 60 1012.2
20260904135205 20 235 9.7 24.1 0.00 0.05 0.05 60 1012.2
20260904134704 20 230 8.0 30.6 0.00 0.05 0.05 60 1012.1
20260904134204 20 226 9.7 30.6 0.00 0.05 0.05 60 1011.8
20260904133706 20 202 11.3 30.6 0.00 0.05 0.05 59 1012.0
20260904132705 20 244 12.9 29.0 0.00 0.05 0.05 60 1011.9
20260904132206 20 224 6.4 29.0 0.00 0.05 0.05 60 1012.0
20260904131704 21 257 14.5 29.0 0.00 0.05 0.05 59 1012.1
20260904130704 20 266 9.7 25.7 0.00 0.05 0.05 59 1011.9
20260904130205 21 221 12.9 22.5 0.00 0.05 0.05 60 1011.8
20260904125704 21 261 6.4 22.5 0.00 0.05 0.05 64 1011.6
20260904124704 20 233 9.7 24.1 0.00 0.05 0.05 64 1011.4
20260904124204 20 250 8.0 24.1 0.00 0.05 0.05 64 1011.4
20260904123704 20 245 9.7 24.1 0.00 0.05 0.05 64 1011.3
20260904123204 20 244 6.4 22.5 0.00 0.05 0.05 64 1011.2
20260904122704 20 255 8.0 25.7 0.00 0.05 0.05 64 1011.4
20260904121704 20 262 9.7 25.7 0.00 0.05 0.05 64 1011.2
20260904121203 20 235 11.3 20.9 0.00 0.05 0.05 64 1011.2
20260904120704 20 233 6.4 20.9 0.00 0.05 0.05 66 1011.0
20260904120209 20 244 8.0 32.2 0.00 0.05 0.05 66 1010.8
20260904115705 20 188 4.8 32.2 0.00 0.05 0.05 66 1010.8
20260904115204 20 241 6.4 32.2 0.00 0.05 0.05 66 1010.9
20260904114704 20 265 11.3 25.7 0.00 0.05 0.05 66 1010.9
20260904114203 20 255 9.7 20.9 0.00 0.05 0.05 66 1010.8
20260904113704 21 238 6.4 20.9 0.00 0.05 0.05 68 1010.7
20260904113204 21 298 8.0 22.5 0.00 0.05 0.05 69 1010.5
20260904112704 21 244 8.0 22.5 0.00 0.05 0.05 69 1010.3
20260904112204 21 231 11.3 24.1 0.00 0.05 0.05 68 1010.5
20260904111704 21 272 11.3 24.1 0.00 0.05 0.05 69 1010.4
20260904111214 21 259 8.0 24.1 0.00 0.05 0.05 69 1010.2
20260904110704 21 257 8.0 27.4 0.00 0.05 0.05 70 1010.4
20260904110204 21 228 3.2 27.4 0.00 0.05 0.05 71 1010.3
20260904104704 20 237 8.0 24.1 0.00 0.05 0.05 74 1010.1
20260904104204 20 255 9.7 22.5 0.00 0.05 0.05 73 1010.2
20260904103704 20 275 8.0 22.5 0.00 0.05 0.05 74 1010.4
20260904103205 20 234 9.7 24.1 0.00 0.05 0.05 74 1010.3
20260904102704 20 233 9.7 24.1 0.00 0.05 0.05 75 1010.2
20260904101204 20 166 6.4 20.9 0.00 0.05 0.05 76 1010.0
20260904100704 20 244 4.8 20.9 0.00 0.05 0.05 77 1009.9
20260904100204 20 241 6.4 20.9 0.00 0.05 0.05 77 1009.8
20260904095704 20 259 9.7 19.3 0.00 0.05 0.05 77 1009.8
20260904095233 20 228 6.4 20.9 0.00 0.05 0.05 77 1009.7
20260904094704 19 258 6.4 20.9 0.00 0.05 0.05 77 1009.5
20260904094204 19 231 8.0 20.9 0.00 0.05 0.05 77 1009.6
20260904093707 19 235 8.0 14.5 0.00 0.05 0.05 76 1009.8
20260904093206 19 255 3.2 14.5 0.00 0.05 0.05 74 1009.9
20260904091704 18 226 4.8 19.3 0.05 0.05 0.05 72 1009.9
20260904090704 18 245 8.0 16.1 0.05 0.05 0.05 72 1009.8
20260904090204 18 258 4.8 16.1 0.05 0.05 0.05 71 1009.8
20260904085705 19 231 8.0 14.5 0.05 0.05 0.05 71 1009.6
20260904085204 19 228 4.8 16.1 0.05 0.05 0.05 70 1009.6
20260904084704 19 231 6.4 16.1 0.05 0.05 0.05 71 1009.4
20260904083704 19 241 4.8 25.7 0.05 0.05 0.05 72 1009.4
20260904083204 19 240 6.4 25.7 0.05 0.05 0.05 74 1009.3
20260904082704 20 254 9.7 25.7 0.05 0.05 0.00 75 1009.1
20260904081703 21 188 6.4 27.4 0.00 0.00 0.00 76 1008.4
20260904080204 21 252 8.0 25.7 0.00 0.00 0.00 77 1008.2
20260904075704 21 289 9.7 25.7 0.00 0.00 0.00 77 1008.1
20260904075204 21 221 9.7 25.7 0.00 0.00 0.00 77 1008.0
20260904074704 21 243 4.8 20.9 0.00 0.00 0.00 77 1007.9
20260904074204 21 178 8.0 20.9 0.00 0.00 0.00 77 1008.0
20260904073705 21 306 4.8 20.9 0.00 0.00 0.00 77 1007.9
20260904073206 21 104 6.4 20.9 0.00 0.00 0.00 77 1008.0
20260904072704 21 240 8.0 22.5 0.00 0.00 0.00 77 1007.9
20260904072205 21 244 6.4 22.5 0.00 0.00 0.00 77 1007.8
20260904070204 21 159 6.4 16.1 0.00 0.00 0.00 77 1007.7
20260904065706 21 226 6.4 20.9 0.00 0.00 0.00 77 1007.7
20260904065204 21 272 6.4 20.9 0.00 0.00 0.00 77 1007.9
20260904064714 20 219 6.4 20.9 0.00 0.00 0.00 77 1007.8
20260904064209 20 231 6.4 17.7 0.00 0.00 0.00 77 1007.8
20260904063704 20 216 4.8 19.3 0.00 0.00 0.00 77 1007.9
20260904063205 20 282 6.4 20.9 0.00 0.00 0.00 77 1007.8
20260904062704 20 131 6.4 20.9 0.00 0.00 0.00 77 1007.8
20260904061703 20 142 6.4 17.7 0.00 0.00 0.00 77 1008.2
20260904061205 20 248 6.4 14.5 0.00 0.00 0.00 77 1008.2
20260904060703 20 272 6.4 19.3 0.00 0.00 0.00 77 1008.3
20260904060204 20 183 3.2 19.3 0.00 0.00 0.00 77 1008.3
20260904055704 20 97 4.8 19.3 0.00 0.00 0.00 77 1008.3
20260904055204 20 204 4.8 19.3 0.00 0.00 0.00 77 1008.2
20260904054704 20 148 4.8 22.5 0.00 0.00 0.00 77 1008.1
20260904054203 20 250 4.8 22.5 0.00 0.00 0.00 77 1008.0
20260904053704 20 268 3.2 22.5 0.00 0.00 0.00 77 1008.1
20260904053204 20 230 8.0 22.5 0.00 0.00 0.00 77 1008.1
20260904052704 20 238 4.8 22.5 0.00 0.00 0.00 77 1008.1
20260904052204 20 180 4.8 17.7 0.00 0.00 0.00 77 1007.8
20260904051704 20 230 3.2 24.1 0.00 0.00 0.00 77 1008.0
20260904051204 20 226 4.8 25.7 0.00 0.00 0.00 77 1008.2
20260904050705 20 206 3.2 25.7 0.00 0.00 0.00 77 1008.2
20260904050204 20 116 6.4 25.7 0.00 0.00 0.00 77 1008.4
20260904045705 20 250 9.7 16.1 0.00 0.00 0.00 77 1008.4
20260904045204 20 179 4.8 14.5 0.00 0.00 0.00 77 1008.6
20260904044704 20 259 4.8 17.7 0.00 0.00 0.00 77 1008.6
20260904044204 20 272 4.8 17.7 0.00 0.00 0.00 77 1008.6
20260904043704 20 148 4.8 17.7 0.00 0.00 0.00 77 1008.6
20260904043203 20 227 6.4 16.1 0.00 0.00 0.00 77 1008.7
20260904042705 20 216 4.8 19.3 0.00 0.00 0.00 77 1008.9
20260904042205 20 252 6.4 19.3 0.00 0.00 0.00 77 1008.9
20260904041705 20 151 4.8 16.1 0.00 0.00 0.00 77 1008.9
20260904041204 20 243 3.2 16.1 0.00 0.00 0.00 77 1009.0
20260904040704 20 145 3.2 17.7 0.00 0.00 0.00 77 1008.9
20260904040204 20 189 4.8 17.7 0.00 0.00 0.00 77 1008.9
20260904035704 20 188 4.8 17.7 0.00 0.00 0.00 77 1008.9
20260904035204 20 262 3.2 17.7 0.00 0.00 0.00 77 1008.9
20260904034704 20 235 6.4 24.1 0.00 0.00 0.00 77 1009.1
20260904034204 20 192 6.4 24.1 0.00 0.00 0.00 77 1009.1
20260904033704 20 189 4.8 24.1 0.00 0.00 0.00 77 1009.2
20260904033205 20 172 6.4 22.5 0.00 0.00 0.00 77 1009.1
20260904032706 20 152 6.4 22.5 0.00 0.00 0.00 77 1009.1
20260904032205 20 209 3.2 22.5 0.00 0.00 0.00 77 1009.0
20260904031704 20 178 4.8 14.5 0.00 0.00 0.00 77 1009.2
20260904031204 20 254 4.8 19.3 0.00 0.00 0.00 77 1009.4
20260904030704 20 89 4.8 19.3 0.00 0.00 0.00 77 1009.5
20260904030204 20 192 6.4 19.3 0.00 0.00 0.00 77 1009.7
20260904025704 20 217 6.4 19.3 0.00 0.00 0.00 77 1009.7
20260904024706 20 186 8.0 16.1 0.00 0.00 0.00 77 1009.9
20260904024207 20 178 3.2 20.9 0.00 0.00 0.00 77 1009.9
20260904023706 20 257 4.8 20.9 0.00 0.00 0.00 77 1009.8
20260904023207 20 44 4.8 16.1 0.00 0.00 0.00 77 1009.8
20260904022703 20 158 6.4 24.1 0.00 0.00 0.00 77 1009.8
20260904021703 20 151 4.8 17.7 0.00 0.00 0.00 77 1010.0
20260904021204 20 204 4.8 19.3 0.00 0.00 0.00 77 1010.1
20260904015704 20 241 3.2 25.7 0.00 0.00 0.00 77 1010.1
20260904015204 20 210 4.8 25.7 0.00 0.00 0.00 77 1010.2
20260904014710 20 110 4.8 25.7 0.00 0.00 0.00 77 1010.3
20260904014204 20 186 6.4 19.3 0.00 0.00 0.00 77 1010.4
20260904013704 20 204 4.8 19.3 0.00 0.00 0.00 77 1010.5
20260904013204 20 140 3.2 17.7 0.00 0.00 0.00 77 1010.6
20260904012704 20 180 4.8 17.7 0.00 0.00 0.00 77 1010.6
20260904012204 20 264 4.8 17.7 0.00 0.00 0.00 77 1010.7
20260904011704 20 20 4.8 9.7 0.00 0.00 0.00 77 1010.6
20260904011204 20 172 3.2 11.3 0.00 0.00 0.00 77 1010.7
20260904010704 20 250 3.2 14.5 0.00 0.00 0.00 77 1010.7
20260904010203 20 220 3.2 16.1 0.00 0.00 0.00 77 1010.8
20260904005704 20 173 4.8 16.1 0.00 0.00 0.00 77 1010.9
20260904005204 20 228 6.4 11.3 0.00 0.00 0.00 77 1011.0
20260904004705 20 97 3.2 14.5 0.00 0.00 0.00 77 1011.1
20260904004205 20 189 3.2 14.5 0.00 0.00 0.00 77 1011.2
20260904003704 20 183 1.6 14.5 0.00 0.00 0.00 77 1011.3
20260904003204 20 142 3.2 14.5 0.00 0.00 0.00 77 1011.4
20260904002704 20 176 1.6 11.3 0.00 0.00 0.00 77 1011.5
20260904002204 20 193 3.2 19.3 0.00 0.00 0.00 77 1011.6
20260904001705 20 183 1.6 19.3 0.00 0.00 0.00 77 1011.7
20260904001204 20 202 3.2 16.1 0.00 0.00 0.00 77 1011.8
20260904000704 20 180 3.2 16.1 0.00 0.00 0.00 77 1012.0
20260904000204 20 221 1.6 16.1 0.00 0.00 0.00 77 1012.1
20260903235704 20 278 4.8 14.5 0.00 0.00 0.00 77 1012.2
20260903235204 20 193 4.8 14.5 0.00 0.00 0.00 77 1012.2
20260903234714 20 130 4.8 16.1 0.00 0.00 0.00 77 1012.2
20260903234204 20 102 3.2 16.1 0.00 0.00 0.00 77 1012.2
20260903233707 20 219 1.6 16.1 0.00 0.00 0.00 77 1012.1
20260903233204 20 237 3.2 6.4 0.00 0.00 0.00 77 1012.2
20260903231204 20 169 0.0 9.7 0.00 0.00 0.00 77 1012.4
20260903230704 20 227 1.6 9.7 0.00 0.00 0.00 77 1012.5
20260903230233 20 193 3.2 11.3 0.00 0.00 0.00 77 1012.5
20260903225203 20 186 3.2 16.1 0.00 0.00 0.00 77 1012.4
20260903224704 20 207 3.2 16.1 0.00 0.00 0.00 77 1012.4
20260903224204 20 206 4.8 16.1 0.00 0.00 0.00 77 1012.4
20260903223704 20 179 3.2 16.1 0.00 0.00 0.00 77 1012.6
20260903223206 20 182 3.2 16.1 0.00 0.00 0.00 77 1012.8
20260903222704 21 234 4.8 17.7 0.00 0.00 0.00 77 1012.8
20260903222204 21 258 4.8 19.3 0.00 0.00 0.00 77 1012.8
20260903221204 21 179 4.8 17.7 0.00 0.00 0.00 77 1012.9
20260903220704 21 226 6.4 17.7 0.00 0.00 0.00 77 1013.0
20260903220204 21 195 4.8 16.1 0.00 0.00 0.00 77 1013.0
20260903215704 21 175 3.2 16.1 0.00 0.00 0.00 77 1013.1
20260903215204 21 220 1.6 16.1 0.00 0.00 0.00 77 1013.1
20260903214704 21 247 4.8 16.1 0.00 0.00 0.00 77 1013.1
20260903213704 21 210 4.8 16.1 0.00 0.00 0.00 77 1013.2
20260903213203 21 268 6.4 11.3 0.00 0.00 0.00 77 1013.2
20260903212704 21 178 3.2 14.5 0.00 0.00 0.00 77 1013.2
20260903212205 21 180 3.2 17.7 0.00 0.00 0.00 77 1013.1
20260903211205 21 264 4.8 19.3 0.00 0.00 0.00 77 1013.4
20260903210704 21 257 3.2 19.3 0.00 0.00 0.00 77 1013.3
20260903210204 21 161 4.8 14.5 0.00 0.00 0.00 77 1013.4
20260903205704 21 186 4.8 14.5 0.00 0.00 0.00 77 1013.5
20260903205204 21 261 3.2 14.5 0.00 0.00 0.00 77 1013.5
20260903204704 21 212 3.2 14.5 0.00 0.00 0.00 77 1013.4
20260903204203 21 180 4.8 14.5 0.00 0.00 0.00 77 1013.4
20260903203704 21 203 1.6 9.7 0.00 0.00 0.00 77 1013.4
20260903203203 21 185 3.2 11.3 0.00 0.00 0.00 77 1013.5
20260903202704 21 125 3.2 11.3 0.00 0.00 0.00 77 1013.5
20260903202204 21 162 1.6 11.3 0.00 0.00 0.00 77 1013.5
20260903201214 21 235 1.6 11.3 0.00 0.00 0.00 77 1013.4
20260903200704 21 233 3.2 11.3 0.00 0.00 0.00 77 1013.5
20260903195704 21 262 3.2 14.5 0.00 0.00 0.00 76 1013.5
20260903195204 21 200 1.6 14.5 0.00 0.00 0.00 76 1013.6
20260903194704 21 118 3.2 14.5 0.00 0.00 0.00 76 1013.5
20260903194204 21 133 3.2 11.3 0.00 0.00 0.00 76 1013.6
20260903193704 21 231 3.2 11.3 0.00 0.00 0.00 76 1013.6
20260903193204 21 202 3.2 11.3 0.00 0.00 0.00 75 1013.6
20260903192705 22 90 3.2 17.7 0.00 0.00 0.00 75 1013.6
20260903192204 22 234 4.8 17.7 0.00 0.00 0.00 75 1013.6
20260903191704 22 199 3.2 11.3 0.00 0.00 0.00 75 1013.6
20260903190704 22 195 3.2 14.5 0.00 0.00 0.00 75 1013.6
20260903190209 22 199 3.2 14.5 0.00 0.00 0.00 74 1013.5
20260903185707 22 230 1.6 9.7 0.00 0.00 0.00 74 1013.4
20260903185204 22 157 3.2 8.0 0.00 0.00 0.00 74 1013.4
20260903184704 22 165 3.2 11.3 0.00 0.00 0.00 73 1013.4
20260903184204 23 193 3.2 16.1 0.00 0.00 0.00 73 1013.3
20260903183704 23 172 1.6 16.1 0.00 0.00 0.00 72 1013.3
20260903183204 23 137 3.2 16.1 0.00 0.00 0.00 72 1013.3
20260903181704 23 234 4.8 11.3 0.00 0.00 0.00 71 1013.2
20260903181204 23 183 3.2 11.3 0.00 0.00 0.00 71 1013.2
20260903180709 23 55 4.8 17.7 0.00 0.00 0.00 70 1013.2
20260903180204 23 254 3.2 17.7 0.00 0.00 0.00 70 1013.3
20260903175205 24 231 3.2 14.5 0.00 0.00 0.00 69 1013.3
20260903174204 24 209 3.2 17.7 0.00 0.00 0.00 69 1013.4
20260903173704 24 138 3.2 17.7 0.00 0.00 0.00 69 1013.4
20260903173204 24 210 4.8 14.5 0.00 0.00 0.00 69 1013.3
20260903172730 24 152 4.8 11.3 0.00 0.00 0.00 68 1013.2
20260903172204 24 188 3.2 17.7 0.00 0.00 0.00 69 1013.2
20260903171704 24 161 3.2 17.7 0.00 0.00 0.00 69 1013.3
20260903171240 24 248 3.2 14.5 0.00 0.00 0.00 68 1013.5
20260903170204 24 264 6.4 14.5 0.00 0.00 0.00 69 1013.4
20260903165704 24 179 3.2 14.5 0.00 0.00 0.00 69 1013.4
20260903165204 24 203 3.2 14.5 0.00 0.00 0.00 68 1013.3
20260903164704 24 240 3.2 20.9 0.00 0.00 0.00 67 1013.4
20260903164204 25 176 4.8 20.9 0.00 0.00 0.00 67 1013.5
20260903163203 25 148 4.8 16.1 0.00 0.00 0.00 67 1013.5
20260903162704 25 241 4.8 16.1 0.00 0.00 0.00 66 1013.5
20260903162204 25 224 3.2 16.1 0.00 0.00 0.00 66 1013.5
20260903161704 25 231 3.2 16.1 0.00 0.00 0.00 66 1013.5
20260903161204 25 237 1.6 16.1 0.00 0.00 0.00 68 1013.6
20260903160704 25 161 3.2 16.1 0.00 0.00 0.00 67 1013.5
20260903155704 25 114 1.6 14.5 0.00 0.00 0.00 67 1013.6
20260903155205 25 80 3.2 14.5 0.00 0.00 0.00 67 1013.7
20260903154204 25 188 6.4 9.7 0.00 0.00 0.00 66 1013.6
20260903153706 25 159 3.2 11.3 0.00 0.00 0.00 65 1013.8
20260903153204 25 173 3.2 11.3 0.00 0.00 0.00 65 1013.8
20260903152704 25 164 3.2 14.5 0.00 0.00 0.00 65 1013.8
20260903152204 25 149 3.2 14.5 0.00 0.00 0.00 64 1014.0
20260903151704 25 251 1.6 14.5 0.00 0.00 0.00 63 1014.0
20260903151204 25 168 3.2 22.5 0.00 0.00 0.00 63 1013.9
20260903150704 25 266 6.4 22.5 0.00 0.00 0.00 61 1013.9
20260903145704 26 234 4.8 11.3 0.00 0.00 0.00 60 1014.1
20260903145205 26 207 3.2 25.7 0.00 0.00 0.00 60 1014.0
20260903144704 26 154 3.2 25.7 0.00 0.00 0.00 59 1013.8